Weather History for North Adams, MA

Change the Weather History Date:

Monday, July 22, 2013

  Actual Average Record
Temperature  
Mean Temperature 72 °F -  
Max Temperature 84 °F 77 °F 93 °F (2011)
Min Temperature 61 °F 55 °F 48 °F (2007)
Cooling Degree Days 8    
Growing Degree Days 22 (Base 50)    
Moisture  
Dew Point 60 °F    
Average Humidity 70    
Maximum Humidity 96    
Minimum Humidity 41    
Precipitation  
Precipitation 0.00 in - - ()
Sea Level Pressure  
Sea Level Pressure 29.96 in    
Wind  
Wind Speed 2 mph (ESE)    
Max Wind Speed 13 mph    
Max Gust Speed 17 mph    
Visibility 10 miles    
Events      
Averages and records for this station are not official NWS values.
T = Trace of Precipitation, MM = Missing Value Source: NWS Daily Summary

Daily Weather History Graph

Daily Weather History Graph

Search for Another Location

Airport:

Trip Planner

Search our weather history database for the weather conditions in past years. The results will help you decide how hot, cold, wet, or windy it might be!

Date:

Astronomy

Jul. 22, 2013 Rise Set
Actual Time 5:34 AM EDT 8:23 PM EDT
Civil Twilight 5:01 AM EDT 8:56 PM EDT
Nautical Twilight 4:19 AM EDT 9:37 PM EDT
Astronomical Twilight 3:31 AM EDT 10:25 PM EDT
Moon 8:04 PM EDT (7/22) 5:29 AM EDT (7/22)
Length of Visible Light 15h 54m
Length of Day
14h 48m
Full, 100% of the Moon is Illuminated
Jul 22
Full
Jul 22
Full
Jul 29
Last Quarter
Aug 6
New
Aug 14
First Quarter

Hourly Weather History & Observations

Time (EDT) Temp. Heat Index Dew Point Humidity Pressure Visibility Wind Dir Wind Speed Gust Speed Precip Events Conditions
12:52 AM 64.0 °F - 63.0 °F 96% 30.00 in 9.0 mi Calm Calm - N/A   Mostly Cloudy
1:52 AM 63.0 °F - 61.0 °F 93% 29.99 in 9.0 mi Calm Calm - N/A   Overcast
2:52 AM 62.1 °F - 60.1 °F 93% 29.99 in 10.0 mi Calm Calm - N/A   Mostly Cloudy
3:52 AM 63.0 °F - 61.0 °F 93% 29.99 in 10.0 mi Calm Calm - N/A   Overcast
4:52 AM 61.0 °F - 59.0 °F 93% 29.99 in 8.0 mi Calm Calm - N/A   Clear
5:52 AM 62.1 °F - 60.1 °F 93% 30.00 in 8.0 mi Calm Calm - N/A   Overcast
6:52 AM 63.0 °F - 61.0 °F 93% 30.01 in 10.0 mi Calm Calm - N/A   Scattered Clouds
7:15 AM 64.4 °F - 60.8 °F 88% 30.02 in 10.0 mi Calm Calm - N/A   Scattered Clouds
7:52 AM 66.0 °F - 61.0 °F 84% 30.01 in 10.0 mi Calm Calm - N/A   Mostly Cloudy
8:52 AM 69.1 °F - 61.0 °F 75% 30.01 in 10.0 mi Calm Calm - N/A   Scattered Clouds
9:52 AM 70.0 °F - 60.1 °F 71% 30.01 in 10.0 mi Calm Calm - N/A   Overcast
10:52 AM 72.0 °F - 61.0 °F 68% 29.99 in 10.0 mi Variable 3.5 mph - N/A   Mostly Cloudy
11:52 AM 78.1 °F - 60.1 °F 54% 29.98 in 10.0 mi Variable 5.8 mph - N/A   Scattered Clouds
12:52 PM 81.0 °F 81.1 °F 57.9 °F 45% 29.96 in 10.0 mi Calm Calm - N/A   Clear
1:52 PM 84.0 °F 83.5 °F 57.9 °F 41% 29.93 in 10.0 mi ESE 12.7 mph 17.3 mph N/A   Mostly Cloudy
2:52 PM 84.0 °F 83.5 °F 57.9 °F 41% 29.91 in 10.0 mi ESE 11.5 mph - N/A   Mostly Cloudy
3:52 PM 82.9 °F 82.6 °F 57.9 °F 42% 29.91 in 10.0 mi SE 8.1 mph - N/A   Partly Cloudy
4:52 PM 82.9 °F 82.8 °F 59.0 °F 44% 29.88 in 10.0 mi ESE 6.9 mph - N/A   Clear
5:52 PM 82.0 °F 83.0 °F 62.1 °F 51% 29.87 in 10.0 mi SSE 9.2 mph - N/A   Partly Cloudy
6:52 PM 79.0 °F - 63.0 °F 58% 29.87 in 10.0 mi East 6.9 mph - N/A   Partly Cloudy
7:52 PM 78.1 °F - 62.1 °F 58% 29.86 in 10.0 mi East 3.5 mph - N/A   Overcast
8:52 PM 77.0 °F - 63.0 °F 62% 29.87 in 10.0 mi East 6.9 mph - N/A   Overcast